Regional Weather Roundup
Issued by NWS

Home | Current Version | Previous Version | Text Only | Print | Product List | Glossary On
Versions: 1 2 3 4 5 6 7 8 9 10 11 12 13 14 15 16 17 18 19 20 21 22 23 24 25 26 27 28 29 30 31 32 33 34 35 36 37 38 39 40 41 42 43 44 45 46 47 48 49 50
000
ASUS44 KJAN 092210
RWRMS

MISSISSIPPI HOURLY WEATHER ROUNDUP
NATIONAL WEATHER SERVICE JACKSON MS
400 PM CST FRI DEC 09 2016

NOTE: "FAIR: INDICATES FEW OR NO CLOUDS BELOW 12,000 FEET WITH NO
SIGNIFICANT WEATHER AND/OR OBSTRUCTIONS TO VISIBILITY.

MSZ001>002-007>008-010>013-018>021-025>028-034>036-092300-
NORTHWEST MISSISSIPPI

CITY           SKY/WX    TMP DP  RH WIND       PRES   REMARKS
CLEVELAND      FAIR      37  23  57 N7        30.58F WCI  32
GREENWOOD      CLEAR     40  19  43 NW6       30.57S
GREENVILLE     CLEAR     38  22  52 N7        30.57F WCI  33
OXFORD         FAIR      37  14  38 N5        30.57S WCI  34
WINONA         FAIR      39  17  40 N6        30.55S WCI  35
$$

MSZ003>006-009-014>017-022>024-029>033-037>039-092300-
NORTHEAST MISSISSIPPI

CITY           SKY/WX    TMP DP  RH WIND       PRES   REMARKS
COLUMBUS AFB   CLEAR     40  20  43 NW9       30.53S WCI  34
GOLDN TRIANGLE CLEAR     41  18  38 N9        30.50S
STARKVILLE     FAIR      39  18  41 N7        30.55S WCI  34
TUPELO         CLEAR     39  14  36 N8        30.54F WCI  33
$$

MSZ040-058-092300-
CENTRAL MISSISSIPPI

CITY           SKY/WX    TMP DP  RH WIND       PRES   REMARKS
JACKSON INTL   CLEAR     44  18  35 N10       30.53R
JACKSON HAWKNS   N/A    N/A N/A N/A MISG      30.53S
MADISON        FAIR      41  18  38 NE3       30.53S
MERIDIAN KEY   CLEAR     46  15  28 N13       30.52R
MERIDIAN NAS   PTCLDY    44  15  31 N8        30.53R
VICKSBURG VKS  CLEAR     43  16  33 N12       30.54S
$$

MSZ059>079-092300-
SOUTH MISSISSIPPI

CITY           SKY/WX    TMP DP  RH WIND       PRES   REMARKS
BROOKHAVEN     FAIR     N/A N/A N/A N8        30.51R
COLUMBIA       FAIR      48  14  25 N7        30.52R
HATTIESBURG    CLEAR     49  15  25 N10       30.49R
LAUREL         FAIR      46  13  27 N8        30.50R
MCCOMB         SUNNY     48  12  23 N12       30.49R
NATCHEZ        SUNNY     45  19  36 N9        30.52S
PINE BELT      CLEAR     46  16  29 N12       30.50S
$$

MSZ080>082-092300-
COASTAL MISSISSIPPI

CITY           SKY/WX    TMP DP  RH WIND       PRES   REMARKS
BAY ST LOUIS   CLEAR     50  10  20 N10       30.47S
BILOXI         CLEAR     50  20  30 N10       30.46R
PASCAGOULA     CLEAR     49  16  26 NE10      30.46R
GULFPORT       CLEAR     51  19  28 NE12      30.46R
$$

LAZ007>009-015>016-023>026-092300-
NORTHEAST LOUISIANA

CITY           SKY/WX    TMP DP  RH WIND       PRES   REMARKS
BASTROP        FAIR      40  22  48 E6        30.57S
TALLULAH/VBURG CLEAR     41  24  51 N10       30.56S
VIDALIA        FAIR      43  24  46 N13       30.57S
$$



USA.gov is the U.S. government's official web portal to all federal, state and local government web resources and services.